Wind_Speed
31 31 32 31 31 32 32 32 32 32 32 32 32 32 32 32 32 32 32 33 33 33 33 33 33 33 33 33 34 35 36 36 37 38 39 41 43 44 44 44 45 45 45 45
32 32 32 32 31 31 31 31 31 30 29 29 30 30 30 30 30 29 29 30 31 31 31 31 31 31 31 32 32 33 34 34 35 35 36 38 40 41 42 42 43 43 43 43
33 33 33 32 30 30 29 29 29 29 28 27 27 28 28 28 28 28 28 27 28 29 29 29 29 30 31 32 32 32 33 33 33 35 35 36 37 38 39 40 41 41 41 41
33 33 33 32 30 29 29 29 28 28 27 26 26 26 26 26 27 27 27 27 28 28 28 29 29 30 30 30 31 31 31 32 32 33 34 34 35 37 37 38 39 39 39 39
33 33 32 31 30 30 29 28 27 26 26 27 27 26 26 26 26 26 26 26 27 28 28 28 28 28 28 29 29 30 31 30 31 31 32 32 33 34 36 37 38 38 38 38
32 32 31 30 30 29 29 27 27 27 27 27 27 27 26 26 26 25 25 25 25 27 27 27 27 27 27 27 28 28 29 30 30 29 29 30 30 31 33 35 36 37 38 38
31 31 31 30 30 29 29 28 28 28 28 28 27 27 27 27 27 26 26 25 25 25 25 26 26 26 27 27 27 27 28 28 29 29 29 29 29 30 31 33 35 36 37 37
30 30 30 30 30 29 29 29 28 28 28 28 27 27 27 27 27 27 26 26 25 25 25 26 27 26 26 26 26 27 27 27 28 29 29 29 29 30 30 31 32 34 36 36
30 30 30 30 30 30 29 29 28 28 28 27 27 27 27 27 27 27 27 27 26 26 26 26 26 26 26 27 26 26 26 26 27 28 29 29 30 30 30 31 31 32 33 34
30 29 30 30 29 29 29 29 28 28 28 28 27 27 27 27 27 27 27 27 27 27 26 26 26 26 26 26 25 25 25 25 26 27 28 28 29 30 30 30 31 31 32 32
29 29 29 29 29 29 29 29 28 28 28 28 27 27 27 27 27 26 26 27 27 26 26 26 26 26 26 26 26 26 25 25 26 26 26 27 28 29 29 30 31 31 31 31
29 29 29 29 29 29 28 28 28 28 28 28 28 28 28 27 26 26 26 26 26 26 25 25 25 26 26 27 28 27 26 26 26 26 26 27 27 28 29 30 31 31 31 31
29 29 29 28 28 28 28 27 28 28 28 28 28 27 27 27 26 25 25 25 24 24 24 24 24 25 26 26 27 27 27 27 27 27 27 27 27 28 28 29 30 31 31 32
29 28 28 27 27 28 27 27 27 27 27 27 27 27 27 26 26 26 25 24 24 24 24 24 25 25 25 25 26 26 27 27 27 27 28 29 29 29 29 29 30 31 31 31
28 28 27 27 27 27 27 27 27 27 27 27 27 27 27 26 26 26 25 25 24 24 24 25 25 25 25 25 25 26 26 27 27 27 28 29 29 30 30 30 30 30 31 31
28 27 27 26 26 26 27 27 27 27 27 27 27 27 26 26 25 25 25 25 24 24 24 24 24 25 25 26 26 26 26 26 27 27 28 28 29 29 30 31 31 31 31 32
27 26 26 26 26 26 27 27 27 27 27 27 27 26 26 25 25 24 24 24 23 23 23 23 24 24 25 26 27 27 27 27 28 28 28 28 28 29 29 30 31 31 32 32
27 26 26 26 26 26 26 27 27 27 26 26 26 25 25 24 24 24 24 23 23 23 23 23 24 25 25 26 27 27 27 27 28 28 29 29 29 29 29 30 31 31 32 32
27 26 26 26 26 27 27 27 27 26 26 25 25 25 24 24 24 23 23 23 23 23 23 23 23 23 24 24 26 27 27 28 28 28 29 29 29 29 30 30 30 31 32 32
26 26 26 27 27 27 27 26 26 26 25 25 25 25 25 24 24 24 23 23 23 22 22 22 22 22 22 23 24 25 27 27 28 28 29 29 30 30 30 31 31 31 31 31
26 26 27 27 27 27 26 26 26 26 26 26 26 25 25 25 25 24 24 23 23 22 22 22 21 21 22 23 24 25 25 26 27 27 28 29 29 30 30 30 31 31 31 31
26 27 27 27 27 27 27 27 26 26 26 26 26 26 25 25 25 24 24 23 22 22 22 21 21 21 22 23 23 24 25 25 26 26 27 27 28 28 29 29 30 30 30 30
26 26 26 26 26 27 27 27 27 27 27 26 26 26 25 25 25 24 23 23 22 22 22 21 21 21 22 22 23 23 24 25 25 26 26 26 26 26 27 27 28 28 28 28
27 26 27 27 27 27 28 28 28 27 27 26 26 26 25 24 24 23 23 22 22 22 21 21 21 22 22 22 22 23 23 23 24 24 24 24 25 25 25 26 26 26 27 27
26 26 27 27 27 28 28 28 27 27 27 26 26 25 25 25 24 23 22 22 21 21 20 20 20 21 21 21 21 21 22 22 22 23 23 24 24 24 25 25 25 26 26 26
26 26 27 27 27 27 27 27 27 27 26 26 25 25 24 23 23 22 21 20 20 20 20 19 19 19 19 19 19 19 19 20 20 21 21 22 23 23 24 24 25 25 25 25
26 27 27 27 27 27 27 26 26 25 25 24 24 23 22 22 21 21 20 19 19 18 18 18 17 17 17 17 17 17 17 18 18 19 20 20 20 21 22 22 22 23 23 22
Wind_Direction
305 304 302 301 300 298 298 296 294 293 289 286 283 281 279 276 275 273 271 267 266 265 263 262 262 262 262 261 259 257 254 253 252 250 248 247 245 244 245 245 245 246 246 247
303 302 301 301 302 300 299 298 296 294 291 288 285 283 281 277 276 276 274 271 268 266 264 262 261 261 262 261 260 257 253 253 252 252 250 248 246 244 244 244 244 244 245 246
304 303 301 302 302 301 300 299 297 296 294 292 288 285 283 280 277 276 275 274 271 268 265 264 264 264 265 262 261 258 255 252 252 252 251 248 245 243 243 244 244 243 243 245
305 304 304 304 302 300 300 300 299 298 295 292 291 289 286 283 280 278 276 275 273 270 267 265 264 265 264 263 260 258 255 252 252 250 248 246 243 243 243 244 244 242 242 243
305 305 304 305 305 304 303 300 299 298 297 294 291 290 288 285 282 280 277 275 274 272 269 266 264 264 262 261 259 257 255 253 251 249 246 245 244 243 244 244 243 242 242 244
305 305 306 307 306 305 303 300 298 297 297 297 293 289 287 287 284 281 279 277 275 274 271 268 265 264 261 261 259 257 254 252 251 249 245 245 243 242 242 242 242 242 243 244
305 305 305 307 306 304 303 302 301 299 297 296 295 292 288 286 284 282 279 278 276 275 272 269 266 264 261 261 260 257 254 253 251 248 247 246 244 244 243 242 242 242 243 244
306 305 306 306 304 302 301 300 300 299 298 297 295 295 293 289 286 284 281 278 276 274 271 269 265 262 260 260 259 257 255 253 251 249 247 246 244 244 244 245 245 244 243 243
306 306 306 305 303 301 300 299 300 300 298 298 297 296 295 293 288 285 282 279 276 274 272 269 266 262 258 258 257 256 254 253 251 249 248 248 245 243 244 245 244 243 243 244
305 305 305 304 303 303 301 301 301 300 299 298 297 296 296 294 290 287 284 281 277 274 273 270 266 262 259 256 253 252 253 253 251 249 249 249 247 245 245 245 244 243 243 244
306 306 304 304 303 303 302 301 300 299 299 299 298 297 297 296 291 288 285 281 278 274 271 269 265 262 260 256 253 251 252 253 251 250 248 248 247 246 245 245 245 245 245 245
305 305 305 305 303 303 302 301 300 300 300 298 298 297 297 296 293 289 285 282 278 274 271 268 264 263 260 256 254 253 253 254 252 250 249 249 248 247 247 247 247 247 246 246
305 305 304 304 303 303 303 303 302 302 302 300 298 297 296 296 294 290 287 284 279 275 271 268 265 263 261 257 254 254 254 254 252 251 251 250 249 248 248 249 249 249 248 248
306 305 304 304 304 304 304 304 304 304 304 303 300 298 296 294 291 289 287 285 280 275 271 268 267 265 261 258 255 255 255 253 252 252 252 251 251 250 250 250 249 249 250 251
305 306 305 304 304 304 305 306 305 305 305 305 303 300 298 295 292 289 286 284 281 278 273 269 267 265 261 258 257 256 255 254 253 253 254 253 252 251 250 250 251 251 252 253
303 304 304 305 305 305 306 307 306 305 304 304 303 302 300 297 294 290 287 285 282 278 275 272 270 266 260 257 256 257 257 255 254 255 255 253 253 252 252 252 252 252 252 253
303 303 303 304 305 306 307 307 307 306 304 304 303 302 300 299 296 294 291 288 284 280 276 274 272 267 262 258 256 257 256 255 255 254 254 255 255 254 253 253 253 253 253 253
304 303 303 304 305 306 307 308 309 308 305 304 304 302 302 300 298 295 293 289 286 283 280 276 273 269 264 260 258 257 256 256 255 254 254 254 255 255 255 254 254 254 254 255
303 303 304 305 306 307 308 309 309 309 308 306 305 304 303 302 300 296 293 291 288 286 282 279 275 271 266 262 259 258 257 257 256 255 254 254 254 254 255 255 255 255 256 256
303 303 304 305 306 308 309 309 309 309 308 307 306 305 303 303 301 299 296 292 289 286 283 280 276 271 268 265 262 260 259 258 257 256 255 255 255 255 256 256 256 256 256 258
302 303 304 305 306 307 308 308 308 307 307 307 306 305 303 303 302 300 296 293 289 286 283 280 276 272 269 266 264 262 261 260 259 258 257 256 256 256 257 257 257 257 257 258
302 303 304 305 306 307 307 307 307 307 307 307 306 305 304 303 302 300 297 293 289 286 284 281 277 273 271 269 266 264 262 261 261 260 259 258 258 258 258 257 257 258 257 257
303 304 304 305 306 307 307 307 308 308 307 307 306 305 304 303 302 300 297 293 291 288 285 282 278 276 273 270 268 267 265 263 262 261 260 260 259 258 258 258 257 257 257 256
302 303 305 306 306 307 307 307 308 309 308 307 307 306 305 304 303 301 299 295 292 289 286 282 280 277 276 274 271 269 267 265 262 260 260 259 259 259 259 258 257 257 257 257
303 304 305 306 307 307 307 307 307 308 307 307 307 307 306 304 302 301 299 297 293 291 289 286 283 281 278 275 272 270 268 266 264 261 259 259 259 259 259 258 258 257 257 258
304 304 305 306 307 307 307 307 307 307 307 307 307 307 306 304 302 301 299 298 296 293 291 288 286 283 280 277 274 272 270 267 264 262 261 260 260 260 260 260 260 259 258 257
305 305 306 306 307 307 307 307 307 308 308 308 308 307 306 305 304 302 300 298 297 295 293 291 288 284 281 278 276 274 273 272 269 265 264 263 262 261 261 261 260 258 256 254
Height
5601 5597 5592 5589 5586 5582 5578 5573 5570 5567 5564 5562 5559 5557 5555 5553 5551 5550 5549 5549 5548 5548 5549 5549 5549 5550 5550 5550 5550 5551 5553 5555 5556 5558 5561 5563 5566 5570 5574 5577 5581 5585 5588 5591
5593 5589 5584 5581 5577 5573 5569 5565 5561 5558 5556 5552 5549 5547 5545 5544 5542 5541 5540 5539 5539 5539 5539 5540 5540 5540 5540 5541 5541 5541 5543 5544 5546 5548 5550 5552 5555 5558 5562 5565 5569 5573 5576 5579
5585 5580 5576 5573 5570 5565 5561 5557 5553 5550 5548 5544 5541 5539 5537 5535 5534 5532 5531 5531 5530 5530 5530 5530 5531 5531 5531 5531 5531 5532 5533 5534 5536 5538 5539 5541 5543 5547 5550 5554 5557 5561 5565 5568
5575 5572 5568 5567 5561 5557 5553 5549 5545 5542 5539 5536 5534 5531 5529 5527 5525 5524 5523 5522 5521 5521 5521 5521 5521 5521 5521 5522 5522 5523 5524 5525 5526 5527 5529 5531 5533 5536 5540 5543 5546 5550 5553 5557
5567 5562 5559 5557 5553 5549 5545 5542 5538 5535 5532 5529 5526 5524 5522 5519 5517 5516 5515 5514 5513 5512 5512 5512 5512 5512 5512 5512 5513 5514 5515 5516 5517 5518 5520 5522 5524 5526 5530 5532 5536 5539 5543 5546
5559 5554 5551 5550 5545 5540 5537 5534 5531 5527 5524 5521 5518 5517 5515 5512 5510 5508 5507 5506 5505 5504 5503 5503 5503 5503 5504 5504 5504 5505 5506 5507 5508 5509 5511 5513 5515 5517 5520 5522 5526 5529 5532 5535
5551 5546 5543 5541 5536 5533 5531 5528 5523 5519 5516 5514 5511 5509 5507 5504 5502 5500 5499 5498 5497 5496 5495 5495 5495 5495 5496 5496 5496 5496 5497 5498 5499 5500 5502 5504 5507 5509 5511 5513 5516 5519 5522 5525
5544 5540 5539 5533 5529 5526 5523 5518 5515 5512 5509 5506 5503 5501 5498 5496 5494 5493 5491 5490 5489 5488 5487 5487 5487 5487 5488 5488 5488 5489 5489 5490 5491 5492 5494 5496 5498 5500 5502 5504 5507 5509 5512 5514
5537 5535 5529 5525 5521 5518 5514 5511 5508 5504 5501 5499 5496 5493 5491 5489 5487 5485 5483 5482 5481 5480 5479 5479 5478 5478 5479 5480 5480 5481 5481 5482 5483 5485 5486 5488 5490 5491 5493 5495 5498 5500 5502 5505
5529 5526 5521 5517 5513 5510 5507 5503 5500 5497 5494 5491 5489 5486 5484 5481 5479 5477 5475 5473 5472 5472 5471 5470 5470 5470 5470 5471 5472 5473 5474 5475 5476 5477 5478 5480 5481 5483 5485 5487 5489 5491 5493 5495
5521 5518 5513 5510 5506 5503 5499 5496 5492 5489 5486 5483 5481 5478 5476 5473 5470 5468 5466 5465 5464 5463 5463 5462 5462 5462 5462 5463 5464 5465 5466 5467 5468 5469 5471 5472 5473 5475 5477 5479 5480 5482 5484 5486
5514 5510 5506 5503 5499 5495 5492 5488 5485 5482 5479 5476 5473 5471 5468 5465 5462 5460 5458 5456 5455 5454 5454 5454 5454 5454 5454 5455 5456 5457 5459 5460 5460 5461 5463 5464 5465 5467 5468 5470 5472 5473 5475 5477
5506 5502 5499 5495 5491 5488 5485 5481 5478 5474 5471 5468 5465 5462 5460 5457 5454 5452 5450 5448 5447 5446 5446 5445 5445 5446 5446 5447 5448 5449 5450 5451 5452 5453 5455 5456 5457 5459 5460 5462 5463 5464 5466 5468
5498 5495 5491 5488 5484 5481 5477 5474 5470 5467 5463 5460 5457 5454 5451 5449 5446 5444 5442 5440 5439 5438 5438 5437 5437 5437 5438 5438 5439 5440 5441 5443 5444 5445 5446 5448 5449 5450 5452 5453 5454 5456 5457 5459
5491 5487 5484 5480 5477 5474 5470 5467 5463 5460 5456 5453 5449 5446 5443 5441 5438 5436 5434 5432 5431 5430 5429 5429 5429 5429 5429 5430 5431 5432 5433 5434 5435 5436 5437 5439 5440 5441 5442 5444 5445 5447 5448 5449
5484 5480 5477 5473 5470 5466 5463 5459 5456 5452 5449 5446 5442 5439 5436 5433 5430 5428 5426 5424 5423 5422 5421 5420 5420 5420 5420 5421 5422 5423 5424 5426 5427 5428 5429 5430 5431 5432 5433 5435 5436 5437 5439 5440
5477 5473 5470 5467 5463 5459 5456 5452 5449 5445 5442 5438 5435 5431 5428 5425 5423 5421 5418 5416 5415 5414 5413 5412 5412 5411 5412 5413 5414 5415 5416 5417 5418 5419 5420 5421 5422 5423 5424 5425 5426 5428 5429 5430
5469 5466 5463 5460 5456 5453 5449 5445 5442 5438 5434 5431 5427 5424 5421 5418 5416 5413 5411 5409 5407 5406 5405 5404 5404 5403 5403 5404 5405 5406 5407 5408 5408 5409 5411 5412 5412 5413 5414 5415 5417 5418 5419 5419
5462 5459 5456 5452 5449 5445 5442 5438 5435 5431 5427 5424 5420 5417 5414 5411 5408 5406 5404 5402 5400 5398 5397 5396 5395 5395 5395 5395 5396 5397 5397 5398 5399 5400 5401 5402 5403 5404 5405 5406 5407 5408 5408 5409
5455 5451 5448 5445 5442 5438 5435 5431 5427 5424 5420 5417 5413 5410 5407 5404 5401 5399 5396 5394 5392 5391 5389 5388 5387 5387 5387 5387 5387 5388 5388 5389 5390 5390 5391 5392 5393 5394 5395 5396 5397 5398 5398 5399
5447 5444 5441 5438 5434 5431 5427 5424 5420 5417 5413 5410 5406 5403 5400 5397 5394 5391 5389 5386 5384 5383 5382 5380 5380 5379 5379 5379 5379 5379 5379 5380 5380 5381 5382 5382 5383 5384 5385 5385 5386 5387 5388 5389
5440 5437 5434 5431 5427 5423 5420 5417 5413 5409 5406 5402 5399 5396 5393 5389 5386 5383 5381 5379 5377 5375 5374 5373 5372 5371 5371 5371 5370 5370 5370 5371 5371 5371 5372 5372 5373 5374 5374 5375 5376 5377 5378 5379
5432 5429 5426 5423 5420 5416 5413 5409 5406 5402 5399 5395 5392 5389 5385 5382 5379 5377 5374 5372 5370 5368 5367 5365 5364 5364 5363 5362 5362 5362 5361 5362 5362 5362 5362 5363 5363 5364 5365 5365 5366 5366 5367 5368
5425 5422 5419 5415 5412 5409 5405 5402 5398 5395 5391 5388 5385 5381 5378 5375 5372 5369 5367 5365 5363 5361 5359 5358 5357 5356 5355 5354 5353 5353 5353 5352 5353 5353 5353 5354 5354 5355 5355 5356 5356 5357 5358 5359
5417 5414 5411 5408 5405 5401 5398 5394 5391 5387 5384 5380 5377 5374 5371 5368 5365 5363 5360 5358 5356 5354 5352 5350 5349 5348 5347 5346 5345 5345 5344 5344 5344 5344 5344 5345 5345 5346 5346 5347 5347 5348 5348 5349
5409 5406 5403 5400 5397 5394 5390 5387 5383 5380 5377 5373 5370 5367 5364 5361 5358 5356 5353 5351 5349 5347 5345 5343 5342 5340 5339 5338 5338 5337 5336 5336 5336 5336 5337 5337 5337 5337 5338 5338 5338 5339 5339 5340
5402 5399 5396 5392 5389 5386 5383 5379 5376 5373 5370 5366 5363 5360 5357 5354 5352 5349 5347 5345 5343 5341 5339 5337 5335 5334 5333 5332 5331 5330 5330 5329 5329 5329 5329 5329 5329 5329 5330 5330 5330 5331 5331 5332